STARLINK-1875 (47160 NORAD) Tracking and Keplerian Element Data

This shows tracking and keplerian element data for the satellite.

Feedback or suggestion? Click here.




ElementValue
Catalog47160
NameSTARLINK-1875
Epoch Orbit1568
Epoch Day59.91667824
Epoch Year2021
RAAN248.234
Inclination53.0567
Eccentricity0.0001547
Argument of Perigee86.2197
Mean Anonmoly45.3481
Mean Motion15.08405795
Decay Rate-0.0103913
L11 47160U 20088AQ 21059.91667824 -.01039130 00000-0 -71212-1 0 9999
L22 47160 53.0567 248.2340 0001547 86.2197 45.3481 15.08405795 15688

Live tracking and technical data element details for STARLINK-1875 (NORAD 47160). STARLINK-1875 can be tracked NOW for your location showing map with azimuth and elevation plus other details from your city location.

Track the satellite on the map from your city or location and see movement details for azimuth, elevation, latitude, longitude, range, height, and movement on the map or in text.







IsCatalogInMostPopularTable: catalog: 47160, numindb: 34
Update: records affected: 1



GetName: 47160 STARLINK-1875

Hit Count: updated at: Mon, 01 Mar 2021 22:21:12 GMT